[[{"header":{"parameterUnit":"m.s-1","parameterCategory":1,"la1":30.2991,"la2":30.254,"lo1":-89.0895,"lo2":-89.0444,"dy":0.0017,"dx":0.0017,"nx":28,"ny":28,"refTime":"2024-03-16T09:00:00:Z","depth":0,"parameterNumber":2,"parameterNumberName":"U-component_of_WINDS"},"data":[0,0,0,0,0,0,0,0,0,0,0,0,0,0,0,0,0,0,0,0,0,0,0,0,0,0,0,0,0,0,0,0,0,0,0,0,0,0,0,0,0,0,0,0,0,0,0,0,0,0,0,0,0,0,0,0,0,0,-0.3512,-0.3512,0,-0.3496,-0.3495,-0.3495,-0.347,-0.3469,-0.3469,-0.3468,-0.3451,-0.3451,-0.3451,0,0,0,0,0,0,0,0,0,0,0,0,0,-0.3523,-0.3523,-0.3512,-0.3512,-0.3512,-0.3496,-0.3495,-0.3495,-0.347,-0.3469,-0.3469,-0.3468,-0.3451,-0.3451,-0.3451,0,0,0,0,0,0,0,0,0,0,0,0,0,-0.3514,-0.3523,-0.3512,-0.3497,-0.3496,-0.3496,-0.3495,-0.3495,-0.347,-0.3469,-0.3469,-0.3468,-0.3451,-0.3451,-0.3451,-0.3464,0,0,-0.3451,-0.3451,0,0,0,0,0,0,0,0,-0.3514,-0.3513,-0.35,-0.3498,-0.3497,-0.3484,-0.3493,-0.3485,-0.347,-0.348,-0.3468,-0.3468,-0.3463,-0.3462,-0.346,-0.3463,-0.3463,-0.3451,-0.3451,-0.3451,-0.3451,0,0,0,0,0,0,0,-0.3515,-0.3514,-0.3506,-0.35,-0.3498,-0.3492,-0.349,-0.3491,-0.3475,-0.3479,-0.3477,-0.3475,-0.3462,-0.346,-0.3459,-0.3462,-0.3451,-0.3451,-0.3451,-0.3451,-0.3477,-0.3478,0,0,0,0,0,0,-0.3518,-0.3515,-0.3506,-0.3505,-0.3504,-0.3492,-0.349,-0.3489,-0.3475,-0.3472,-0.3476,-0.3474,-0.346,-0.3459,-0.3459,-0.3474,-0.3451,-0.3451,-0.3451,-0.3476,-0.3477,-0.3478,0,0,0,0,0,0,-0.3518,-0.3517,-0.3507,-0.3509,-0.3508,-0.3493,-0.3492,-0.3489,-0.3487,-0.3473,-0.347,-0.3477,-0.346,-0.3459,-0.3463,-0.3473,-0.3451,-0.3451,-0.3476,-0.3477,-0.3478,-0.3505,0,0,0,0,0,0,-0.3518,-0.3517,-0.3522,-0.351,-0.3508,-0.3512,-0.3492,-0.3489,-0.3487,-0.3485,-0.3473,-0.3471,-0.3459,-0.3464,-0.3463,-0.3473,-0.3451,-0.3475,-0.3476,-0.3477,-0.3503,-0.3507,-0.351,0,0,0,0,0,-0.3519,-0.353,-0.3522,-0.3522,-0.3513,-0.3512,-0.3511,-0.3498,-0.3488,-0.3493,-0.3484,-0.3471,-0.3472,-0.3464,-0.3464,-0.3473,-0.3474,-0.3476,-0.3477,-0.3501,-0.3506,-0.351,0,0,0,0,0,0,-0.3544,-0.3528,-0.3519,-0.3527,-0.3521,-0.3508,-0.3514,-0.3503,-0.35,-0.3498,-0.3481,-0.3479,-0.3486,-0.348,-0.3471,-0.3486,-0.3471,-0.3473,-0.349,-0.3494,-0.3497,-0.3499,-0.3451,0,0,0,0,0,-0.355,-0.3551,-0.3537,-0.3545,-0.3543,-0.3529,-0.3528,-0.3518,-0.3512,-0.3509,-0.35,-0.3494,-0.3493,-0.3493,-0.3491,-0.3502,-0.3499,-0.3508,-0.3512,-0.3514,-0.3516,-0.3523,-0.3527,-0.3484,-0.3484,-0.3484,0,0,-0.3563,-0.3555,-0.3556,-0.355,-0.3544,-0.3546,-0.3527,-0.3529,-0.353,-0.3509,-0.3513,-0.3507,-0.3499,-0.3507,-0.351,-0.3502,-0.3528,-0.3517,-0.3519,-0.3519,-0.3525,-0.3529,-0.3532,-0.3485,-0.3484,-0.3484,0,0,-0.3588,-0.3581,-0.3588,-0.3583,-0.3575,-0.3566,-0.3567,-0.3556,-0.3551,-0.3555,-0.354,-0.3541,-0.3539,-0.3535,-0.3532,-0.3557,-0.3545,-0.3557,-0.3575,-0.3581,-0.3585,-0.3588,-0.3597,-0.3601,-0.3558,-0.3558,-0.3558,0,-0.3605,-0.3607,-0.3592,-0.3596,-0.3594,-0.3576,-0.3582,-0.3578,-0.357,-0.3569,-0.3561,-0.3559,-0.3553,-0.356,-0.3566,-0.3564,-0.3566,-0.3558,-0.3585,-0.3588,-0.3591,-0.36,-0.3603,-0.356,-0.356,-0.356,-0.3559,0,-0.3629,-0.3631,-0.3637,-0.363,-0.3628,-0.3634,-0.362,-0.3621,-0.3611,-0.3603,-0.3608,-0.36,-0.3597,-0.3597,-0.3588,-0.3604,-0.3599,-0.3588,-0.3573,-0.3597,-0.3605,-0.3608,-0.3562,-0.3562,-0.3561,-0.3561,0,0,-0.3669,-0.3655,-0.3657,-0.3654,-0.3645,-0.3646,-0.365,-0.3647,-0.3649,-0.3644,-0.3648,-0.3647,-0.3637,-0.3635,-0.3625,-0.363,-0.3651,-0.3618,-0.3618,-0.3626,-0.367,-0.3679,-0.3683,-0.3644,-0.3644,-0.3645,-0.3671,0,-0.3693,-0.37,-0.3687,-0.3697,-0.3699,-0.3682,-0.3686,-0.3681,-0.3674,-0.3674,-0.3666,-0.3667,-0.3653,-0.3651,-0.3656,-0.3648,-0.366,-0.3646,-0.3648,-0.3648,-0.3651,-0.3687,-0.3696,-0.3721,-0.3674,-0.3674,-0.3675,0,-0.3721,-0.3718,-0.3729,-0.3719,-0.372,-0.3724,-0.3721,-0.3721,-0.3715,-0.371,-0.3707,-0.3696,-0.37,-0.3685,-0.3692,-0.3682,-0.3682,-0.3678,-0.3679,-0.3679,-0.3663,-0.3689,-0.3729,-0.3733,-0.3679,-0.3679,-0.3679,0,-0.375,-0.3749,-0.3756,-0.3754,-0.3742,-0.3746,-0.3742,-0.3735,-0.3734,-0.3732,-0.3731,-0.3729,-0.3728,-0.3727,-0.3716,-0.3706,-0.3724,-0.3708,-0.372,-0.372,-0.3725,-0.3725,-0.3766,-0.3724,-0.3724,-0.3724,-0.3723,0,-0.3779,-0.3786,-0.3769,-0.3773,-0.3781,-0.3767,-0.3775,-0.3769,-0.3763,-0.3766,-0.3751,-0.3754,-0.3739,-0.374,-0.3731,-0.3738,-0.3738,-0.3734,-0.3732,-0.3736,-0.3736,-0.3736,-0.3734,-0.3724,-0.3724,-0.3724,-0.3724,0,-0.3813,-0.3802,-0.3808,-0.3797,-0.3795,-0.3801,-0.3792,-0.3796,-0.3788,-0.3792,-0.3792,-0.378,-0.3781,-0.3769,-0.3768,-0.3762,-0.3774,-0.3768,-0.3776,-0.3774,-0.3788,-0.3787,-0.3831,-0.3836,-0.379,-0.379,-0.3791,0,-0.3832,-0.3837,-0.3828,-0.3829,-0.3825,-0.3827,-0.3826,-0.3813,-0.3813,-0.3807,-0.3812,-0.3812,-0.3811,-0.3814,-0.3805,-0.3804,-0.3799,-0.3814,-0.3799,-0.3803,-0.3801,-0.3801,-0.3802,-0.3818,-0.3818,-0.3819,-0.3819,0,-0.3867,-0.3862,-0.3862,-0.386,-0.386,-0.3858,-0.3855,-0.3857,-0.3842,-0.3844,-0.3845,-0.3845,-0.3844,-0.3844,-0.3842,-0.3838,-0.3827,-0.3824,-0.3827,-0.3832,-0.3837,-0.3836,-0.3786,-0.3823,-0.3823,-0.3823,-0.3822,-0.3822,-0.3895,-0.39,-0.3894,-0.3895,-0.3891,-0.3889,-0.3892,-0.3885,-0.3886,-0.3885,-0.3876,-0.3879,-0.3874,-0.387,-0.3867,-0.387,-0.3862,-0.3866,-0.3867,-0.3869,-0.3872,-0.3836,-0.3869,-0.3869,-0.3869,-0.3869,-0.3868,0,-0.3931,-0.3927,-0.3927,-0.3924,-0.3925,-0.3914,-0.3911,-0.3912,-0.3915,-0.3911,-0.3911,-0.3913,-0.3914,-0.3906,-0.3905,-0.3909,-0.3904,-0.391,-0.391,-0.3909,-0.3878,-0.3876,-0.3914,-0.3914,-0.3914,-0.3914,-0.3914,-0.3914,-0.395,-0.3957,-0.3951,-0.3957,-0.3952,-0.3955,-0.3954,-0.3953,-0.395,-0.3953,-0.3953,-0.3948,-0.3942,-0.3942,-0.3942,-0.394,-0.3941,-0.3949,-0.3944,-0.3916,-0.3911,-0.3907,-0.3905,-0.3949,-0.3949,-0.3976,-0.3976,-0.3976]},{"header":{"parameterUnit":"m.s-1","parameterCategory":1,"la1":30.2991,"la2":30.254,"lo1":-89.0895,"lo2":-89.0444,"dy":0.0017,"dx":0.0017,"nx":28,"ny":28,"refTime":"2024-03-16T09:00:00:Z","depth":0,"parameterNumber":3,"parameterNumberName":"V-component_of_WINDS"},"data":[0,0,0,0,0,0,0,0,0,0,0,0,0,0,0,0,0,0,0,0,0,0,0,0,0,0,0,0,0,0,0,0,0,0,0,0,0,0,0,0,0,0,0,0,0,0,0,0,0,0,0,0,0,0,0,0,0,0,0.9978,0.9978,0,0.9964,0.9964,0.9964,0.9924,0.9923,0.9923,0.9922,0.9909,0.9909,0.991,0,0,0,0,0,0,0,0,0,0,0,0,0,0.9971,0.9971,0.9978,0.9977,0.9977,0.9964,0.9964,0.9964,0.9924,0.9923,0.9922,0.9921,0.9909,0.9909,0.991,0,0,0,0,0,0,0,0,0,0,0,0,0,0.9967,0.9971,0.9978,0.9956,0.9954,0.9964,0.9964,0.9964,0.9925,0.9923,0.9922,0.9921,0.9908,0.9909,0.991,0.994,0,0,0.9912,0.9912,0,0,0,0,0,0,0,0,0.9968,0.9968,0.996,0.9958,0.9955,0.9945,0.9957,0.9956,0.9925,0.9936,0.9922,0.992,0.9922,0.9921,0.9921,0.9939,0.9938,0.9912,0.9912,0.9913,0.9913,0,0,0,0,0,0,0,0.9968,0.9968,0.9972,0.9959,0.9957,0.9948,0.9946,0.9956,0.9936,0.9935,0.9932,0.9931,0.992,0.9921,0.9921,0.9938,0.9912,0.9912,0.9913,0.9913,0.9981,0.9982,0,0,0,0,0,0,0.9971,0.9968,0.9973,0.9972,0.9958,0.9949,0.9947,0.9949,0.9936,0.9933,0.9932,0.9929,0.992,0.992,0.992,0.9955,0.9913,0.9913,0.9914,0.9979,0.9981,0.9983,0,0,0,0,0,0,0.9971,0.9972,0.9973,0.9969,0.9969,0.995,0.9954,0.995,0.995,0.9934,0.993,0.9936,0.9919,0.9919,0.9935,0.9954,0.9913,0.9914,0.9978,0.998,0.9982,1.0025,0,0,0,0,0,0,0.9971,0.9972,0.9983,0.997,0.9969,0.9988,0.9955,0.995,0.9951,0.9948,0.9937,0.9934,0.9918,0.9935,0.9936,0.9955,0.9915,0.9976,0.9979,0.9981,1.0022,1.0029,1.0034,0,0,0,0,0,0.9971,0.9996,0.9984,0.9984,0.9982,0.9989,0.9989,0.9971,0.9953,0.9964,0.9954,0.9934,0.9952,0.9936,0.9938,0.9957,0.9975,0.9978,0.9981,1.002,1.0028,1.0034,0,0,0,0,0,0,1.0012,0.9994,0.998,1.0001,0.9997,0.9983,0.9996,0.9979,0.998,0.9977,0.9954,0.9952,0.9971,0.9965,0.9949,0.9986,0.996,0.9964,0.9989,0.9996,1.0002,1.0004,0.9915,0,0,0,0,0,1.0023,1.003,1.0014,1.0034,1.0033,1.0015,1.0017,1.0004,0.9998,0.9997,0.9987,0.9983,0.9988,0.9992,0.9995,1.0021,1.0019,1.0035,1.0041,1.0046,1.005,1.0064,1.0071,0.9993,0.9993,0.9993,0,0,1.0047,1.0038,1.0044,1.0042,1.0037,1.0046,1.0014,1.0024,1.003,0.9998,1.0013,1.0006,1.0,1.0022,1.003,1.0017,1.0071,1.005,1.0054,1.0055,1.0068,1.0075,1.0082,0.9995,0.9995,0.9994,0,0,1.0095,1.0088,1.0105,1.0101,1.0094,1.0082,1.0086,1.0074,1.0068,1.0083,1.0059,1.0066,1.0075,1.0072,1.0072,1.0119,1.0101,1.012,1.0153,1.0167,1.0173,1.0178,1.0197,1.0203,1.0124,1.0124,1.0124,0,1.0126,1.0137,1.0116,1.0127,1.0128,1.0099,1.0117,1.0114,1.0108,1.011,1.0095,1.0105,1.0099,1.012,1.0132,1.0132,1.0136,1.0122,1.0174,1.0179,1.0184,1.0201,1.0207,1.0126,1.0126,1.0126,1.0126,0,1.0175,1.0184,1.0198,1.0194,1.0196,1.021,1.0192,1.0196,1.0182,1.0172,1.0188,1.0179,1.0181,1.0184,1.0171,1.0204,1.0196,1.0178,1.0152,1.0194,1.021,1.0216,1.013,1.0129,1.0128,1.0128,0,0,1.0249,1.0233,1.0239,1.0237,1.0227,1.0234,1.0247,1.0248,1.0253,1.025,1.0262,1.027,1.0253,1.0253,1.0238,1.0251,1.029,1.0231,1.0231,1.0243,1.0328,1.0342,1.035,1.0278,1.0279,1.028,1.0329,0,1.0295,1.0317,1.0299,1.0325,1.0333,1.0306,1.0317,1.0313,1.0304,1.0309,1.0299,1.0306,1.0282,1.0282,1.0293,1.0283,1.0307,1.0279,1.0289,1.029,1.0293,1.0358,1.0374,1.042,1.0334,1.0335,1.0336,0,1.0353,1.0353,1.0379,1.0369,1.0371,1.0382,1.0382,1.0388,1.0383,1.0375,1.0375,1.0357,1.037,1.0344,1.0362,1.0344,1.0347,1.0343,1.0344,1.0345,1.0317,1.0363,1.0434,1.0442,1.0345,1.0345,1.0344,0,1.0406,1.0412,1.0429,1.0428,1.0416,1.0424,1.042,1.0413,1.0415,1.0416,1.0417,1.0419,1.042,1.0422,1.0406,1.0388,1.0427,1.0399,1.0422,1.0422,1.0432,1.0432,1.0507,1.0432,1.0432,1.0432,1.0432,0,1.046,1.0478,1.0453,1.0464,1.0483,1.0461,1.0481,1.0473,1.0468,1.0477,1.0453,1.0462,1.044,1.0447,1.0434,1.0452,1.0452,1.0447,1.0444,1.045,1.0451,1.0453,1.045,1.0434,1.0433,1.0433,1.0432,0,1.0523,1.0507,1.0524,1.0511,1.0508,1.0523,1.0512,1.0521,1.051,1.0522,1.0524,1.0507,1.0514,1.0498,1.0502,1.0494,1.0519,1.051,1.0521,1.0519,1.0544,1.0542,1.0623,1.0633,1.0551,1.0552,1.0552,0,1.056,1.0573,1.0561,1.0565,1.0562,1.0569,1.0571,1.0551,1.0555,1.055,1.056,1.0565,1.0568,1.0581,1.0569,1.0573,1.0565,1.0593,1.0565,1.0571,1.0567,1.0567,1.0569,1.0599,1.06,1.0601,1.0601,0,1.0627,1.0618,1.0622,1.0624,1.0628,1.0628,1.0627,1.0632,1.061,1.0615,1.0622,1.0624,1.0629,1.0635,1.0636,1.0631,1.0613,1.061,1.0616,1.0623,1.063,1.0628,1.0539,1.0608,1.0608,1.0607,1.0607,1.0607,1.0678,1.0689,1.0683,1.0689,1.0686,1.0685,1.0694,1.0684,1.0689,1.0692,1.0679,1.0689,1.0684,1.0683,1.0681,1.0689,1.0676,1.0684,1.0686,1.0689,1.0694,1.0627,1.0689,1.0688,1.0688,1.0688,1.0688,0,1.0746,1.074,1.0746,1.0745,1.075,1.0731,1.0729,1.0734,1.0743,1.074,1.0744,1.0752,1.0757,1.0746,1.075,1.0759,1.0751,1.0761,1.0761,1.076,1.0704,1.0699,1.0767,1.0767,1.0767,1.0767,1.0767,1.0767,1.0781,1.0799,1.079,1.0806,1.08,1.081,1.081,1.081,1.0807,1.0818,1.0822,1.0815,1.0808,1.0812,1.0816,1.0813,1.0816,1.0829,1.0823,1.0772,1.0764,1.0757,1.0752,1.083,1.083,1.0879,1.0879,1.0879]}]]